Regional Weather Roundup
Issued by NWS

Home | Current Version | Previous Version | Text Only | Print | Product List | Glossary On
Versions: 1 2 3 4 5 6 7 8 9 10 11 12 13 14 15 16 17 18 19 20 21 22 23 24 25 26 27 28 29 30 31 32 33 34 35 36 37 38 39 40 41 42 43 44 45 46 47 48 49 50
000
ASUS43 KDTX 130701
RWRMI
MICHIGAN HOURLY REGIONAL WEATHER ROUNDUP
NATIONAL WEATHER SERVICE DETROIT/PONTIAC MI
200 AM EST SAT FEB 13 2016

NOTE: "FAIR" INDICATES FEW OR NO CLOUDS BELOW 12,000 FEET WITH NO
SIGNIFICANT WEATHER AND/OR OBSTRUCTION TO VISIBILITY.

MIZ047>049-052>055-059>063-066>070-074>076-081>083-130800-
SOUTHEAST LOWER MICHIGAN

CITY           SKY/WX    TMP DP  RH WIND       PRES   REMARKS
ADRIAN         PTCLDY     6  -5  60 N7G17     30.31R WCI  -6
ALMA           CLEAR      5  -3  68 W8        30.30S WCI  -8
ANN ARBOR      PTCLDY     4  -8  57 NW10      30.28R WCI -11
BAD AXE        CLEAR      4  -6  61 N15       30.24R WCI -14
DETROIT CITY   CLEAR      6 -10  47 NW10G20   30.27R WCI  -9
DETROIT        PTCLDY     6  -5  60 NW13      30.30R WCI -10
FLINT          PTCLDY     4  -7  60 NW10      30.28R WCI -11
GROSSE ILE     CLOUDY     9  -2  61 NW14      30.28R WCI  -8
HILLSDALE      CLEAR      4  -8  57 NW16      30.28R WCI -15
HOWELL         PTCLDY     2  -9  60 NW7       30.27R WCI -11

CITY           SKY/WX    TMP DP  RH WIND       PRES   REMARKS
JACKSON        PTCLDY     3 -11  52 NW9       30.29R WCI -12
LAMBERTVILLE   CLEAR      7  -7  54 NW8       30.31R WCI  -6
LANSING        PTCLDY     4  -8  57 NW10      30.31R WCI -11
LAPEER         CLOUDY     3  -6  66 N6        30.25R WCI  -8
MASON          CLEAR      4  -7  60 NW9       30.29R WCI -11
MONROE         PTCLDY     8  -8  50 NW8G16    30.30R WCI  -5
MT. CLEMENS    FLURRIES   5  -4  66 NW9       30.26R WCI  -9
PONTIAC        PTCLDY     4  -4  69 NW14      30.24R WCI -14
PORT HOPE        N/A      7  -2  66 NW28G41   30.22R WCI -16
PORT HURON     CLEAR      3  -8  60 NW12      30.24R WCI -13
TRI CITIES     MOCLDY     6  -5  60 W9        30.29R WCI  -8
MIDLAND        FAIR       4  -6  65 W5        30.29R WCI  -6
TROY           PTCLDY     7  -8  50 NW9       30.29R WCI  -6
SAGINAW HB     PTCLDY     5   0  78 W9        30.29R WCI  -9
$$
MIZ043>046-050>051-056>058-064>065-071>073-077>080-130800-
SOUTHWEST LOWER MICHIGAN

CITY           SKY/WX    TMP DP  RH WIND       PRES   REMARKS
BATTLE CREEK   PTCLDY     4  -7  60 NW13      30.33R WCI -13
BENTON HARBOR  LGT SNOW  13   5  70 NW15G24   30.39R WCI  -3
BIG RAPIDS     CLEAR      1  -3  83 W6        30.27S WCI -10
COLDWATER      CLEAR      6  -8  53 NW10      30.33R WCI  -9
FREMONT        CLOUDY     7  -1  72 NW10G17   30.32S WCI  -8
HOLLAND        LGT SNOW   7   1  76 N5        30.37S WCI  -2
GRAND RAPIDS   PTCLDY     5  -3  69 W8        30.34S WCI  -8
IONIA          FAIR       4  -6  63 W9        30.32R WCI -11
KALAMAZOO      PTCLDY     4  -6  63 N12       30.35R WCI -12
LUDINGTON      LGT SNOW   9   2  74 NW13G22   30.35S WCI  -7
MARSHALL       PTCLDY     5  -7  59 NW7       30.32R WCI  -7
MOUNT PLEASANT CLEAR      5  -4  67 W7        30.28R WCI  -7
MUSKEGON       FLURRIES   9   1  70 N13       30.37R WCI  -7
SOUTH HAVEN    CLOUDY     8   5  85 NE3       30.38R
$$
MIZ016>042-130800-
NORTHERN LOWER MICHIGAN

CITY           SKY/WX    TMP DP  RH WIND       PRES   REMARKS
ALPENA         LGT SNOW  -3  -9  75 NW14      30.29R WCI -22
BEAVER ISLAND  LGT SNOW   0  -5  82 E13       30.31R WCI -18
BELLAIRE       CLOUDY     1  -5  74 NE9       30.31R WCI -14
CADILLAC       LGT SNOW   3  -2  80 W9        30.20S WCI -11
CHARLEVOIX     CLOUDY     0  -5  79 E10       30.33R WCI -17
FRANKFORT      LGT SNOW  10   0  64 NW14G26   30.32F WCI  -6
GAYLORD        PTCLDY    -8 -14  74 N6        30.22R WCI -21
GRAYLING       CLEAR     -5 -11  75 NE8       30.25R WCI -21
HARBOR SPRINGS CLEAR     -7 -15  70 NE6       30.31R WCI -20
HOUGHTON LAKE  FLURRIES   0  -8  69 N10       30.23R WCI -16
MANISTEE       CLOUDY    10   1  67 NW17G25   30.32S WCI  -7
OSCODA         CLEAR     -2 -11  64 N10       30.27R WCI -18
PELLSTON       CLOUDY    -8 -15  71 NE10      30.33R WCI -26
ROGERS CITY    LGT SNOW  -4 -11  71 N12G21    30.32R WCI -22
TRAVERSE CITY  CLOUDY    10   2  69 NW13G22   30.27S WCI  -5
$$
MIZ007>008-015-130800-
EASTERN UPPER MICHIGAN

CITY           SKY/WX    TMP DP  RH WIND       PRES   REMARKS
KINROSS        CLOUDY   -13 -22  64 E5        30.31R WCI -25
MACKINAC ISLAN MOCLDY   -11 -21  61 NE12G17   30.33R WCI -31
NEWBERRY       LGT SNOW  -3  -6  87 E3        30.27S
S. S. MARIE    CLEAR    -12 -26  49 NE13G21   30.30R WCI -33
$$
MIZ004>006-011>014-085-130800-
CENTRAL UPPER MICHIGAN

CITY           SKY/WX    TMP DP  RH WIND       PRES   REMARKS
MANISTIQUE     LGT SNOW   4  -1  83 W6        30.30S WCI  -7
ESCANABA       CLEAR      0   0 100 NW9       30.36S WCI -16
MENOMINEE      CLEAR     -2 -11  65 W6        30.41R WCI -14
SAWYER-GWINN   CLOUDY    -1  -6  79 NW14      30.29S WCI -20
$$
MIZ001>003-009>011-084-130800-
WESTERN UPPER MICHIGAN

CITY           SKY/WX    TMP DP  RH WIND       PRES   REMARKS
IRON MOUNTAIN  CLEAR    -11 -16  78 CALM      30.33S
HOUGHTON       LGT SNOW   1  -7  68 NW17G26   30.35S WCI -19
COPPER HARBOR    N/A      4  -3  73 N24G37    30.37S WCI -19
IRONWOOD       CLOUDY     1  -2  85 NW10      30.41R WCI -14
$$

ABBREVIATIONS USED IN REMARKS
   TC - TEMPERATURE IN CELSIUS
  WCI - WIND CHILL INDEX
   HX - HEAT INDEX
  VSB - VISIBILITY




USA.gov is the U.S. government's official web portal to all federal, state and local government web resources and services.